Regional Weather Roundup
Issued by NWS

Home | Current Version | Previous Version | Text Only | Print | Product List | Glossary On
Versions: 1 2 3 4 5 6 7 8 9 10 11 12 13 14 15 16 17 18 19 20 21 22 23 24 25 26 27 28 29 30 31 32 33 34 35 36 37 38 39 40 41 42 43 44 45 46 47 48 49 50
528
ASUS43 KOAX 241510
RWRNE

WEATHER ROUNDUP FOR NEBRASKA
NATIONAL WEATHER SERVICE OMAHA NE
900 AM CST FRI NOV 24 2017

NOTES: SATELLITE DATA IS BEING USED TO AUGMENT CLOUD COVER ABOVE
       12000 FEET.
       "FAIR" INDICATES FEW OR NO CLOUDS BELOW 12,000 FEET WITH NO
       SIGNIFICANT WEATHER AND/OR OBSTRUCTIONS TO VISIBILITY.


NEZ001>004-019>022-054>056-241600-
NEBRASKA PANHANDLE

CITY           SKY/WX    TMP DP  RH WIND       PRES   REMARKS
SCOTTSBLUFF    CLOUDY    57  32  38 W13G22    29.74R
ALLIANCE       CLEAR     52  37  56 W3        29.71R
CHADRON        CLOUDY    59  37  44 N13G23    29.74R
GORDON         FAIR      58  36  43 N28G38    29.71R
KIMBALL        CLOUDY    57  28  32 W15       29.79S
SIDNEY         CLOUDY    56  29  35 W14       29.78R
$$

NEZ057>060-069>072-079>082-241600-
SOUTHWEST NEBRASKA

CITY           SKY/WX    TMP DP  RH WIND       PRES   REMARKS
NORTH PLATTE   SUNNY     45  38  76 W5        29.67S
IMPERIAL       CLOUDY    54  32  43 W12       29.74R
LEXINGTON      SUNNY     57  41  54 W16       29.64R
MCCOOK         SUNNY     50  35  56 W8        29.70S
OGALLALA       CLOUDY    44  34  68 W3        29.73R
$$

NEZ005>010-023>029-035>040-094-241600-
NORTH CENTRAL NEBRASKA

CITY           SKY/WX    TMP DP  RH WIND       PRES   REMARKS
VALENTINE      SUNNY     57  38  48 W17       29.59R
AINSWORTH      SUNNY     55  40  55 W15       29.56R
BROKEN BOW     SUNNY     60  38  43 W17       29.59S
O`NEILL        SUNNY     56  41  58 W15       29.50S
ORD            SUNNY     57  38  48 W13G23    29.54S
THEDFORD       SUNNY     60  37  42 W14       29.62R
$$

NEZ041-046>049-061>064-073>077-083>087-241600-
SOUTH CENTRAL NEBRASKA

CITY           SKY/WX    TMP DP  RH WIND       PRES   REMARKS
GRAND ISLAND   SUNNY     52  37  56 W16       29.58S
AURORA         SUNNY     53  37  53 W15       29.58S
HASTINGS       CLOUDY    56  35  45 W13       29.61R
HEBRON         MOSUNNY   56  39  53 W8        29.61S
HOLDREGE       SUNNY     50  36  58 W13G18    29.64S
KEARNEY        SUNNY     51  35  54 SW12      29.62S
YORK           SUNNY     54  37  54 W15       29.56F
$$

NEZ011>018-030>034-042>045-241600-
NORTHEAST NEBRASKA

CITY           SKY/WX    TMP DP  RH WIND       PRES   REMARKS
NORFOLK        SUNNY     53  40  61 W7        29.47S
ALBION         SUNNY     56  40  56 W5        29.52R
BLAIR          SUNNY     53  41  62 SW14      29.50F
COLUMBUS       SUNNY     51  38  60 SW13      29.52F
FREMONT        SUNNY     53  39  59 SW7       29.50F
TEKAMAH        SUNNY     50  40  68 S8        29.48F
WAYNE          SUNNY     53  38  56 W12       29.46S
$$

NEZ050>053-065>068-078-088>093-241600-
SOUTHEAST NEBRASKA

CITY           SKY/WX    TMP DP  RH WIND       PRES   REMARKS
LINCOLN        SUNNY     56  39  53 CALM      29.56F
OMAHA EPPLEY   MOSUNNY   51  40  65 S8        29.52F
BEATRICE       SUNNY     54  41  61 SW10      29.59F
FALLS CITY     SUNNY     56  38  50 SW13G21   29.59F
NEBRASKA CITY  SUNNY     55  41  58 SW16G23   29.56S
PLATTSMOUTH    SUNNY     55  41  60 SW15      29.54S
$$

NEZ044-045-051>053-067-241600-
OMAHA AREA

CITY           SKY/WX    TMP DP  RH WIND       PRES   REMARKS
OMAHA EPPLEY   MOSUNNY   51  40  65 S8        29.52F
BLAIR          SUNNY     53  41  62 SW14      29.50F
FREMONT        SUNNY     53  39  59 SW7       29.50F
MILLARD        SUNNY     57  41  55 SW10      29.51F
OFFUTT AFB     SUNNY     53  41  63 S6        29.53F
PLATTSMOUTH    SUNNY     55  41  60 SW15      29.54S
WAHOO          FAIR      55  38  53 SW14      29.51F
$$




USA.gov is the U.S. government's official web portal to all federal, state and local government web resources and services.